Terminal Aerodrome Forecast
Issued by NWS

Home | Current Version | Previous Version | Text Only | Print | Product List | Glossary Off
Versions: 1 2 3 4 5 6 7 8 9 10 11 12 13 14 15 16 17 18 19 20 21 22 23 24 25 26 27 28 29 30 31 32

000
FTUS43 KABR 060258 AAD
TAFATY
TAF AMD
KATY 060258Z 0603/0624 11003KT P6SM -TSRA SCT035 BKN045CB BKN080
     FM060400 VRB06KT P6SM OVC045
     FM060600 01012KT P6SM -SHRA OVC040
     FM061500 36011KT P6SM BKN025=

USA.gov is the U.S. government's official web portal to all federal, state and local government web resources and services.